Вернуться в каталог

SL-16 DEB

АктивенLEO
NORAD 26074·DEBRIS·🇷🇺 Russia

Запущен Feb 3, 2000 с Baikonur Cosmodrome

Loading…

Ближайшие Пролёты (ближайшие 24 часа)

TLE

СвежийSource: Space-Track

Эпоха: Sep 13, 2026, 23:25 UTC

1 26074U 00006D   26256.97631312  .00000047  00000-0  86050-4 0  9992
2 26074  70.9619  85.7555 0211647 128.8409 233.1793 13.70146786371003

Отслеживайте SL-16 DEB в реальном времени с AllMySat

Download on the App Store